GLOBAL-32

Last updated on Thu Jul 03 2025 00:02:05 GMT+0000 (Coordinated Universal Time)

1 64231U 25118B 25183.13737060 .00008113 00000+0 27082-3 0 9993 2 64231 58.9954 102.2679 0013921 354.8351 5.2576 15.31842132 4458
UTC large
Height (km)
Speed (km/s)
/
Latitude / Longitude
Inclination (degrees)
Orbital Period (minutes)
Azimuth
Elevation
Range (km)
Doppler Factor

Next 0 passes for location: London (51.5072 / 0.1276)

Sorry there are no passes over London.